AIC116A KJFK-VABB

Flight info

Callsign AIC116A
Flight time N/A
Altitude 29000
Route MERIT DCT HFD DCT SCUPP Q475 SCOTS N267B NICSO/M085F310 DCT 48N050W 48N040W 48N030W 46N020W DCT KOPAS/N0490F330 DCT STG DCT SUSOS/N0489F320 N725 ELSAP/N0483F340 N725 OSPOK/N0489F330 DCT NOLVI DCT ORKUM/N0485F340 DCT ELSAG DCT ALG/N0490F330 DCT TADIX DCT ORTAP/N0486F350 DCT ARLOS UN4 SALUN N705 MMA DCT OBRAN L321 REXUM M872 PMA Y214 RAPMA DCT MEVDO DCT ALROK/N0493F370 DCT DEBIN DCT MIDGU M440 TULBU N881 AMBOS M700 PARAR N571 SUGID KETOR2A
Aircraft B77W/H-SDE1E2E3FGHIJ2J3J4J5M1RWXY/LB1D1

Departure

Time 2026-05-06 20:53
Airport John F. Kennedy International Airport (KJFK)

Arrival

Time N/A
Airport Chhatrapati Shivaji Maharaj International Airport (VABB)
Time Latitude Longitude Altitude Speed Heading
2026-05-06 20:10 40.64247 -73.77953 28 ft 0 kts 30°
2026-05-06 20:37 40.64246 -73.77954 27 ft 2 kts 30°
2026-05-06 20:37 40.64224 -73.77971 39 ft 4 kts 30°
2026-05-06 20:37 40.64201 -73.77989 27 ft 4 kts 30°
2026-05-06 20:37 40.64182 -73.78003 27 ft 4 kts 27°
2026-05-06 20:38 40.64158 -73.78018 25 ft 4 kts 20°
2026-05-06 20:38 40.64132 -73.78027 25 ft 4 kts
2026-05-06 20:38 40.64110 -73.78022 27 ft 2 kts 331°
2026-05-06 20:38 40.64087 -73.78005 26 ft 4 kts 331°
2026-05-06 20:39 40.64064 -73.77989 25 ft 2 kts 331°
2026-05-06 20:39 40.64045 -73.77972 26 ft 4 kts 312°
2026-05-06 20:39 40.64031 -73.77943 26 ft 3 kts 290°
2026-05-06 20:39 40.64024 -73.77917 25 ft 4 kts 293°
2026-05-06 20:40 40.64010 -73.77888 24 ft 4 kts 320°
2026-05-06 20:40 40.63992 -73.77872 25 ft 4 kts 330°
2026-05-06 20:40 40.63968 -73.77855 26 ft 4 kts 330°
2026-05-06 20:40 40.63946 -73.77838 26 ft 4 kts 324°
2026-05-06 20:41 40.63930 -73.77814 26 ft 4 kts 280°
2026-05-06 20:41 40.63933 -73.77782 24 ft 4 kts 242°
2026-05-06 20:41 40.63945 -73.77752 25 ft 4 kts 241°
2026-05-06 20:41 40.63957 -73.77725 25 ft 1 kts 241°
2026-05-06 20:42 40.63957 -73.77724 25 ft 0 kts 241°
2026-05-06 20:45 40.63952 -73.77738 25 ft 4 kts 241°
2026-05-06 20:45 40.63938 -73.77771 24 ft 4 kts 241°
2026-05-06 20:45 40.63918 -73.77797 27 ft 4 kts 201°
2026-05-06 20:45 40.63887 -73.77784 27 ft 7 kts 158°
2026-05-06 20:46 40.63820 -73.77727 27 ft 15 kts 146°
2026-05-06 20:46 40.63770 -73.77642 29 ft 9 kts 77°
2026-05-06 20:46 40.63817 -73.77585 27 ft 9 kts 31°
2026-05-06 20:46 40.63873 -73.77541 28 ft 9 kts 31°
2026-05-06 20:47 40.63940 -73.77487 26 ft 14 kts 31°
2026-05-06 20:47 40.64049 -73.77400 27 ft 22 kts 31°
2026-05-06 20:47 40.64172 -73.77304 29 ft 19 kts 31°
2026-05-06 20:47 40.64280 -73.77224 28 ft 18 kts 29°
2026-05-06 20:48 40.64362 -73.77159 27 ft 4 kts 32°
2026-05-06 20:48 40.64374 -73.77149 27 ft 3 kts 32°
2026-05-06 20:48 40.64390 -73.77136 27 ft 3 kts 32°
2026-05-06 20:48 40.64405 -73.77116 27 ft 5 kts 52°
2026-05-06 20:49 40.64426 -73.77037 30 ft 14 kts 74°
2026-05-06 20:49 40.64509 -73.76984 24 ft 14 kts 18°
2026-05-06 20:49 40.64594 -73.76921 27 ft 14 kts 31°
2026-05-06 20:49 40.64680 -73.76853 25 ft 15 kts 31°
2026-05-06 20:50 40.64768 -73.76784 25 ft 15 kts 31°
2026-05-06 20:50 40.64856 -73.76715 26 ft 15 kts 31°
2026-05-06 20:50 40.64968 -73.76628 27 ft 22 kts 30°
2026-05-06 20:50 40.65064 -73.76553 31 ft 3 kts 31°
2026-05-06 20:51 40.65080 -73.76538 32 ft 3 kts 40°
2026-05-06 20:51 40.65096 -73.76492 26 ft 12 kts 85°
2026-05-06 20:51 40.65054 -73.76383 27 ft 10 kts 138°
2026-05-06 20:51 40.64991 -73.76383 27 ft 10 kts 205°
2026-05-06 20:52 40.64961 -73.76404 27 ft 0 kts 210°
2026-05-06 20:52 40.64844 -73.76497 29 ft 57 kts 211°
2026-05-06 20:52 40.64265 -73.76946 27 ft 135 kts 210°
2026-05-06 20:53 40.63239 -73.77735 37 ft 203 kts 210°
2026-05-06 20:53 40.61920 -73.78753 488 ft 228 kts 209°
2026-05-06 20:53 40.60542 -73.79777 1808 ft 219 kts 211°
2026-05-06 20:53 40.59177 -73.80709 2897 ft 222 kts 210°
2026-05-06 20:54 40.57790 -73.81630 3417 ft 230 kts 210°
2026-05-06 20:54 40.56294 -73.82615 3801 ft 244 kts 211°
2026-05-06 20:54 40.54779 -73.83595 4443 ft 247 kts 211°
2026-05-06 20:54 40.53115 -73.84408 4901 ft 259 kts 191°
2026-05-06 20:55 40.51300 -73.84163 5522 ft 272 kts 165°
2026-05-06 20:55 40.49652 -73.82807 5978 ft 291 kts 139°
2026-05-06 20:55 40.48518 -73.80552 6425 ft 305 kts 112°
2026-05-06 20:55 40.48182 -73.77776 6897 ft 314 kts 86°
2026-05-06 20:56 40.48744 -73.75042 7261 ft 318 kts 58°
2026-05-06 20:56 40.50157 -73.72854 7576 ft 315 kts 30°
2026-05-06 20:56 40.52031 -73.71406 7940 ft 313 kts 21°
2026-05-06 20:56 40.53985 -73.70114 8349 ft 316 kts 20°
2026-05-06 20:57 40.55970 -73.68840 8783 ft 318 kts 19°
2026-05-06 20:57 40.57969 -73.67559 9195 ft 323 kts 19°
2026-05-06 20:57 40.59999 -73.66252 9604 ft 327 kts 19°
2026-05-06 20:57 40.62050 -73.64920 9990 ft 331 kts 20°
2026-05-06 20:58 40.64124 -73.63564 10391 ft 333 kts 20°
2026-05-06 20:58 40.66222 -73.62182 10712 ft 342 kts 21°
2026-05-06 20:58 40.68404 -73.60744 10822 ft 358 kts 21°
2026-05-06 20:58 40.70684 -73.59237 10978 ft 375 kts 21°
2026-05-06 20:59 40.73054 -73.57665 11116 ft 392 kts 22°
2026-05-06 20:59 40.75547 -73.56006 11270 ft 409 kts 22°
2026-05-06 20:59 40.78115 -73.54290 11605 ft 419 kts 22°
2026-05-06 20:59 40.80738 -73.52532 12161 ft 425 kts 22°
2026-05-06 21:00 40.83385 -73.50753 12837 ft 427 kts 22°
2026-05-06 21:00 40.86048 -73.48965 13431 ft 431 kts 22°
2026-05-06 21:00 40.88735 -73.47162 13976 ft 436 kts 22°
2026-05-06 21:00 40.91458 -73.45333 14528 ft 440 kts 22°
2026-05-06 21:01 40.94191 -73.43498 15072 ft 443 kts 22°
2026-05-06 21:01 40.96955 -73.41639 15652 ft 446 kts 22°
2026-05-06 21:01 40.99727 -73.39774 16234 ft 449 kts 22°
2026-05-06 21:01 41.02531 -73.37886 16727 ft 453 kts 22°
2026-05-06 21:02 41.05354 -73.35984 17228 ft 458 kts 22°
2026-05-06 21:02 41.08204 -73.34061 17741 ft 461 kts 22°
2026-05-06 21:02 41.11073 -73.32123 18225 ft 465 kts 22°
2026-05-06 21:02 41.13966 -73.30167 18711 ft 468 kts 22°
2026-05-06 21:03 41.16869 -73.28201 19192 ft 469 kts 22°
2026-05-06 21:03 41.19782 -73.26227 19742 ft 471 kts 22°
2026-05-06 21:03 41.22701 -73.24244 20255 ft 472 kts 21°
2026-05-06 21:03 41.25632 -73.22253 20745 ft 474 kts 21°
2026-05-06 21:04 41.28578 -73.20252 21209 ft 476 kts 21°
2026-05-06 21:04 41.31500 -73.18266 21710 ft 478 kts 20°
2026-05-06 21:04 41.34450 -73.16210 22201 ft 481 kts 24°
2026-05-06 21:04 41.37213 -73.13591 22680 ft 494 kts 37°
2026-05-06 21:05 41.39632 -73.10294 23171 ft 503 kts 46°
2026-05-06 21:05 41.41646 -73.06445 23561 ft 510 kts 56°
2026-05-06 21:05 41.43422 -73.02344 23858 ft 514 kts 57°
2026-05-06 21:05 41.45185 -72.98176 24128 ft 519 kts 57°
2026-05-06 21:06 41.46968 -72.93973 24387 ft 522 kts 57°
2026-05-06 21:06 41.48779 -72.89759 24741 ft 524 kts 57°
2026-05-06 21:06 41.50609 -72.85552 25085 ft 527 kts 56°
2026-05-06 21:06 41.52467 -72.81314 25407 ft 530 kts 56°
2026-05-06 21:07 41.54338 -72.77055 25695 ft 534 kts 56°
2026-05-06 21:07 41.56223 -72.72762 25969 ft 538 kts 56°
2026-05-06 21:07 41.58115 -72.68440 26255 ft 541 kts 56°
2026-05-06 21:07 41.60019 -72.64080 26519 ft 544 kts 56°
2026-05-06 21:08 41.61926 -72.59701 26753 ft 547 kts 56°
2026-05-06 21:08 41.63843 -72.55297 27075 ft 549 kts 56°
2026-05-06 21:08 41.65761 -72.50874 27350 ft 552 kts 56°
2026-05-06 21:08 41.67683 -72.46419 27600 ft 554 kts 57°
2026-05-06 21:09 41.69602 -72.41955 27786 ft 557 kts 57°
2026-05-06 21:09 41.71538 -72.37443 27967 ft 559 kts 57°
2026-05-06 21:09 41.73474 -72.32920 28164 ft 561 kts 57°
2026-05-06 21:09 41.75416 -72.28379 28344 ft 563 kts 57°
2026-05-06 21:10 41.77360 -72.23832 28499 ft 564 kts 57°
2026-05-06 21:10 41.79305 -72.19271 28773 ft 564 kts 57°
2026-05-06 21:10 41.81255 -72.14696 28826 ft 567 kts 57°
2026-05-06 21:11 41.85180 -72.05476 28840 ft 569 kts 57°
2026-05-06 21:11 41.89080 -71.96268 28831 ft 566 kts 57°
2026-05-06 21:12 41.92954 -71.87097 28831 ft 563 kts 58°
2026-05-06 21:12 41.96807 -71.77952 28901 ft 561 kts 58°
2026-05-06 21:13 42.00646 -71.68816 28862 ft 563 kts 58°
2026-05-06 21:13 42.04492 -71.59631 28853 ft 564 kts 58°
2026-05-06 21:14 42.08330 -71.50437 28863 ft 563 kts 58°
2026-05-06 21:14 42.12167 -71.41219 28848 ft 564 kts 59°
2026-05-06 21:15 42.15982 -71.32020 28844 ft 562 kts 59°
2026-05-06 21:15 42.19783 -71.22825 28845 ft 561 kts 59°
2026-05-06 21:16 42.23573 -71.13630 28839 ft 561 kts 59°
2026-05-06 21:16 42.27358 -71.04422 28843 ft 562 kts 60°
2026-05-06 21:17 42.31143 -70.95180 28837 ft 562 kts 60°
2026-05-06 21:17 42.34917 -70.85939 28801 ft 562 kts 60°
2026-05-06 21:18 42.38680 -70.76693 28826 ft 561 kts 60°
2026-05-06 21:18 42.42409 -70.67502 28834 ft 562 kts 60°
2026-05-06 21:19 42.46162 -70.58224 28842 ft 562 kts 60°
2026-05-06 21:19 42.49902 -70.48950 28828 ft 559 kts 61°
2026-05-06 21:20 42.53614 -70.39712 28863 ft 558 kts 61°
2026-05-06 21:20 42.57318 -70.30467 28860 ft 557 kts 61°
2026-05-06 21:21 42.60948 -70.21181 28842 ft 557 kts 65°
2026-05-06 21:21 42.63997 -70.11518 28851 ft 556 kts 68°
2026-05-06 21:22 42.67032 -70.01851 28872 ft 556 kts 67°
2026-05-06 21:22 42.70075 -69.92204 28866 ft 556 kts 68°
2026-05-06 21:23 42.73093 -69.82527 28847 ft 555 kts 68°
2026-05-06 21:23 42.76093 -69.72867 28868 ft 554 kts 68°
2026-05-06 21:24 42.79085 -69.63210 28892 ft 554 kts 68°
2026-05-06 21:24 42.82074 -69.53533 28878 ft 553 kts 68°
2026-05-06 21:25 42.85050 -69.43861 28990 ft 556 kts 68°
2026-05-06 21:25 42.86541 -69.39002 29319 ft 555 kts 69°
2026-05-06 21:25 42.88026 -69.34154 29706 ft 553 kts 69°
2026-05-06 21:25 42.89501 -69.29329 30083 ft 551 kts 69°
2026-05-06 21:26 42.90953 -69.24573 30397 ft 549 kts 68°
2026-05-06 21:26 42.92435 -69.19707 30652 ft 549 kts 68°
2026-05-06 21:26 42.93878 -69.14961 30832 ft 548 kts 69°
2026-05-06 21:27 42.96818 -69.05264 30910 ft 549 kts 69°
2026-05-06 21:27 42.99705 -68.95705 30902 ft 547 kts 69°
2026-05-06 21:28 43.02592 -68.86112 30919 ft 546 kts 69°